Regional Weather Roundup
Issued by NWS

Home | Current Version | Previous Version | Text Only | Print | Product List | Glossary On
Versions: 1 2 3 4 5 6 7 8 9 10 11 12 13 14 15 16 17 18 19 20 21 22 23 24 25 26 27 28 29 30 31 32 33 34 35 36 37 38 39 40 41 42 43 44 45 46 47 48 49 50
000
ASUS43 KBIS 182302
RWRND

NORTH DAKOTA REGIONAL WEATHER ROUNDUP
NATIONAL WEATHER SERVICE BISMARCK ND
500 PM CST THU JAN 18 2018

NOTE: "FAIR" INDICATES FEW OR NO CLOUDS BELOW 12,000 FEET WITH NO
SIGNIFICANT WEATHER AND/OR OBSTRUCTIONS TO VISIBILITY.


NDZ001>003-009>011-017-190000-
NORTHWEST NORTH DAKOTA

CITY           SKY/WX    TMP DP  RH WIND       PRES   REMARKS
WILLISTON      CLOUDY    37  28  70 SE7       29.65R
MINOT          CLOUDY    40  27  59 SW18      29.58F
MINOT AFB      CLOUDY    39  29  66 W9        29.56F
$$

NDZ018>021-031>035-040>046-190000-
SOUTHWEST NORTH DAKOTA

CITY           SKY/WX    TMP DP  RH WIND       PRES   REMARKS
BISMARCK       CLOUDY    37  28  70 CALM      29.70S
DICKINSON      CLOUDY    38  29  70 W12       29.66F
GARRISON         N/A     34  27  75 SW5       29.64S
HETTINGER ARPT CLOUDY    40  28  62 CALM      29.73R
$$

NDZ004>008-012>016-024-026-027-054-190000-
NORTHEAST NORTH DAKOTA

CITY           SKY/WX    TMP DP  RH WIND       PRES   REMARKS
GRAND FORKS    CLOUDY    26  21  81 S10       29.69F WCI  16
GRND FRKS AFB  FAIR      25  19  77 S8        29.67F WCI  17
DEVILS LAKE    FAIR      30  24  78 S10       29.62F
$$

NDZ022-023-025-028>030-036>039-047>053-190000-
SOUTHEAST NORTH DAKOTA

CITY           SKY/WX    TMP DP  RH WIND       PRES   REMARKS
FARGO          FAIR      28  22  78 S8          N/A  WCI  20
JAMESTOWN      CLOUDY    32  25  75 SW5       29.68S
$$




USA.gov is the U.S. government's official web portal to all federal, state and local government web resources and services.